When you browse on this site, cookies collect data to enhance your experience and personalize the content and advertising you see.
Visit our Privacy Policy to learn more. By continuing to use the site, you agree to this use of cookies and data.
  • In Spain
  • List of Countries
  • For 7 days
  • Water Temperature
  • Satellite Maps
  • Weather Map
  • Weather Widgets
  • user-avatar
    Login

    Hourly Weather Sesimbra

    Today, 17 December, Monday

    Time Temperature Precipitation Wind Pressure Humidity
    00:00 +9°C° 0 mm 0 mps 762 mmHg 88%
    01:00 +10°C° 0 mm 1 mps 762 mmHg 88%
    02:00 +10°C° 0 mm 1 mps 762 mmHg 89%
    03:00 +10°C° 0 mm 1 mps 762 mmHg 90%
    04:00 +9°C° 0 mm 1 mps 762 mmHg 90%
    05:00 +8°C° 0 mm 2 mps 762 mmHg 90%
    06:00 +8°C° 0 mm 2 mps 762 mmHg 88%
    07:00 +9°C° 0 mm 3 mps 762 mmHg 86%
    08:00 +9°C° 0 mm 3 mps 762 mmHg 83%
    09:00 +11°C° 0 mm 3 mps 762 mmHg 75%
    10:00 +12°C° 0 mm 3 mps 762 mmHg 67%
    11:00 +14°C° 0 mm 3 mps 761 mmHg 58%
    12:00 +14°C° 0 mm 3 mps 761 mmHg 56%
    13:00 +16°C° 0 mm 3 mps 760 mmHg 53%
    14:00 +16°C° 0 mm 3 mps 760 mmHg 50%
    15:00 +14°C° 0 mm 3 mps 760 mmHg 55%
    16:00 +12°C° 0 mm 3 mps 760 mmHg 60%
    17:00 +11°C° 0 mm 3 mps 760 mmHg 64%
    18:00 +11°C° 0 mm 3 mps 760 mmHg 67%
    19:00 +10°C° 0 mm 3 mps 760 mmHg 69%
    20:00 +10°C° 0 mm 3 mps 760 mmHg 71%
    21:00 +8°C° 0 mm 4 mps 759 mmHg 73%
    22:00 +8°C° 0 mm 4 mps 759 mmHg 75%
    23:00 +8°C° 0 mm 4 mps 759 mmHg 76%

    Tomorrow, 18 December, Tuesday

    Time Temperature Precipitation Wind Pressure Humidity
    00:00 +8°C° 0 mm 5 mps 758 mmHg 76%
    01:00 +8°C° 0 mm 5 mps 758 mmHg 76%
    02:00 +8°C° 0 mm 5 mps 757 mmHg 76%
    03:00 +8°C° 0 mm 6 mps 757 mmHg 76%
    04:00 +8°C° 0 mm 6 mps 756 mmHg 75%
    05:00 +8°C° 0 mm 6 mps 756 mmHg 75%
    06:00 +9°C° 0 mm 7 mps 756 mmHg 77%
    07:00 +10°C° 0 mm 7 mps 756 mmHg 79%
    08:00 +11°C° 0 mm 8 mps 756 mmHg 81%
    09:00 +12°C° 0.1 mm 8 mps 756 mmHg 80%
    10:00 +13°C° 0.1 mm 8 mps 756 mmHg 80%
    11:00 +16°C° 0.1 mm 9 mps 756 mmHg 79%
    12:00 +16°C° 1 mm 8 mps 755 mmHg 81%
    13:00 +16°C° 1 mm 8 mps 755 mmHg 83%
    14:00 +15°C° 1 mm 8 mps 755 mmHg 86%
    15:00 +14°C° 2 mm 7 mps 755 mmHg 87%
    16:00 +14°C° 2 mm 6 mps 755 mmHg 88%
    17:00 +13°C° 2 mm 5 mps 756 mmHg 90%
    18:00 +12°C° 0 mm 5 mps 756 mmHg 90%
    19:00 +11°C° 0 mm 4 mps 757 mmHg 90%
    20:00 +10°C° 0 mm 3 mps 757 mmHg 89%
    21:00 +10°C° 0 mm 3 mps 758 mmHg 88%
    22:00 +10°C° 0 mm 3 mps 758 mmHg 87%
    23:00 +9°C° 0 mm 2 mps 758 mmHg 87%

    Day after tomorrow, 19 December, Wednesday

    Time Temperature Precipitation Wind Pressure Humidity
    00:00 +9°C° 0 mm 3 mps 758 mmHg 86%
    01:00 +9°C° 0 mm 3 mps 758 mmHg 85%
    02:00 +9°C° 0 mm 3 mps 759 mmHg 85%
    03:00 +9°C° 0 mm 3 mps 759 mmHg 85%
    04:00 +9°C° 0 mm 3 mps 759 mmHg 85%
    05:00 +8°C° 0 mm 4 mps 759 mmHg 86%
    06:00 +10°C° 0 mm 3 mps 760 mmHg 85%
    07:00 +11°C° 0 mm 3 mps 760 mmHg 84%
    08:00 +11°C° 0 mm 3 mps 761 mmHg 84%
    09:00 +13°C° 0 mm 3 mps 761 mmHg 77%
    10:00 +14°C° 0 mm 3 mps 761 mmHg 71%
    11:00 +16°C° 0 mm 3 mps 761 mmHg 65%
    12:00 +16°C° 0 mm 3 mps 760 mmHg 64%
    13:00 +17°C° 0 mm 4 mps 760 mmHg 63%
    14:00 +17°C° 0 mm 4 mps 760 mmHg 62%
    15:00 +14°C° 0 mm 3 mps 760 mmHg 68%
    16:00 +13°C° 0 mm 3 mps 760 mmHg 74%
    17:00 +12°C° 0 mm 3 mps 761 mmHg 80%
    18:00 +12°C° 0 mm 2 mps 761 mmHg 82%
    19:00 +12°C° 0 mm 2 mps 761 mmHg 84%
    20:00 +10°C° 0 mm 2 mps 762 mmHg 86%
    21:00 +11°C° 0 mm 1 mps 762 mmHg 86%
    22:00 +11°C° 0 mm 1 mps 762 mmHg 87%
    23:00 +11°C° 0 mm 1 mps 762 mmHg 87%

    20 December, Thursday

    Time Temperature Precipitation Wind Pressure Humidity
    00:00 +11°C° 0 mm 1 mps 762 mmHg 88%
    01:00 +10°C° 0 mm 1 mps 762 mmHg 88%
    02:00 +10°C° 0 mm 1 mps 761 mmHg 88%
    03:00 +10°C° 0 mm 1 mps 761 mmHg 89%
    04:00 +10°C° 0 mm 1 mps 761 mmHg 89%
    05:00 +10°C° 0 mm 1 mps 761 mmHg 89%
    06:00 +10°C° 0 mm 2 mps 762 mmHg 89%
    07:00 +10°C° 0 mm 2 mps 762 mmHg 88%
    08:00 +12°C° 0 mm 2 mps 762 mmHg 87%
    09:00 +13°C° 0 mm 2 mps 763 mmHg 82%
    10:00 +15°C° 0 mm 2 mps 763 mmHg 76%
    11:00 +16°C° 0 mm 2 mps 763 mmHg 71%
    12:00 +16°C° 0 mm 2 mps 762 mmHg 70%
    13:00 +16°C° 0 mm 2 mps 762 mmHg 69%
    14:00 +17°C° 0 mm 2 mps 762 mmHg 67%
    15:00 +15°C° 0 mm 2 mps 762 mmHg 73%
    16:00 +14°C° 0 mm 2 mps 762 mmHg 78%
    17:00 +13°C° 0 mm 2 mps 762 mmHg 84%
    18:00 +13°C° 0 mm 1 mps 762 mmHg 85%
    19:00 +12°C° 0 mm 1 mps 763 mmHg 86%
    20:00 +12°C° 0 mm 1 mps 763 mmHg 87%
    21:00 +12°C° 0 mm 1 mps 763 mmHg 87%
    22:00 +11°C° 0 mm 1 mps 763 mmHg 88%
    23:00 +11°C° 0 mm 1 mps 763 mmHg 88%

    21 December, Friday

    Time Temperature Precipitation Wind Pressure Humidity
    00:00 +11°C° 0 mm 1 mps 763 mmHg 89%
    01:00 +11°C° 0 mm 1 mps 763 mmHg 89%
    02:00 +11°C° 0 mm 1 mps 763 mmHg 89%
    03:00 +11°C° 0 mm 1 mps 763 mmHg 90%
    04:00 +10°C° 0 mm 1 mps 763 mmHg 90%
    05:00 +10°C° 0 mm 1 mps 763 mmHg 91%
    06:00 +10°C° 0 mm 2 mps 763 mmHg 90%
    07:00 +10°C° 0 mm 2 mps 764 mmHg 88%
    08:00 +10°C° 0 mm 2 mps 764 mmHg 87%
    09:00 +13°C° 0 mm 2 mps 764 mmHg 79%
    10:00 +15°C° 0 mm 2 mps 764 mmHg 71%
    11:00 +17°C° 0 mm 2 mps 764 mmHg 64%
    12:00 +18°C° 0 mm 1 mps 764 mmHg 62%
    13:00 +18°C° 0 mm 1 mps 763 mmHg 61%
    14:00 +19°C° 0 mm 1 mps 763 mmHg 59%
    15:00 +16°C° 0 mm 1 mps 763 mmHg 65%
    16:00 +15°C° 0 mm 1 mps 763 mmHg 71%
    17:00 +13°C° 0 mm 1 mps 763 mmHg 76%
    18:00 +13°C° 0 mm 1 mps 763 mmHg 78%
    19:00 +13°C° 0 mm 1 mps 764 mmHg 79%
    20:00 +12°C° 0 mm 1 mps 764 mmHg 80%
    21:00 +12°C° 0 mm 1 mps 764 mmHg 81%
    22:00 +12°C° 0 mm 1 mps 763 mmHg 83%
    23:00 +10°C° 0 mm 2 mps 763 mmHg 84%

    22 December, Saturday

    Time Temperature Precipitation Wind Pressure Humidity
    00:00 +10°C° 0 mm 2 mps 763 mmHg 85%
    01:00 +10°C° 0 mm 2 mps 763 mmHg 86%
    02:00 +10°C° 0 mm 2 mps 762 mmHg 87%
    03:00 +9°C° 0 mm 3 mps 762 mmHg 88%
    04:00 +9°C° 0 mm 3 mps 762 mmHg 88%
    05:00 +9°C° 0 mm 3 mps 762 mmHg 89%
    06:00 +10°C° 0 mm 3 mps 762 mmHg 87%
    07:00 +10°C° 0 mm 3 mps 762 mmHg 86%
    08:00 +10°C° 0 mm 4 mps 762 mmHg 84%
    09:00 +12°C° 0 mm 3 mps 762 mmHg 77%
    10:00 +14°C° 0 mm 3 mps 762 mmHg 70%
    11:00 +17°C° 0 mm 3 mps 762 mmHg 63%
    12:00 +18°C° 0 mm 3 mps 762 mmHg 61%
    13:00 +19°C° 0 mm 2 mps 761 mmHg 60%
    14:00 +19°C° 0 mm 2 mps 760 mmHg 58%
    15:00 +19°C° 0 mm 1 mps 760 mmHg 64%
    16:00 +16°C° 0 mm 1 mps 760 mmHg 70%
    17:00 +15°C° 0 mm 1 mps 760 mmHg 76%
    18:00 +14°C° 0 mm 1 mps 760 mmHg 78%
    19:00 +14°C° 0 mm 2 mps 761 mmHg 79%
    20:00 +13°C° 0 mm 2 mps 761 mmHg 81%
    21:00 +13°C° 0 mm 2 mps 761 mmHg 82%
    22:00 +13°C° 0 mm 2 mps 760 mmHg 82%
    23:00 +12°C° 0 mm 2 mps 760 mmHg 82%
    Show more